Time,TemperatureF,DewpointF,PressureIn,WindDirection,WindDirectionDegrees,WindSpeedMPH,WindSpeedGustMPH,Humidity,HourlyPrecipIn,Conditions,Clouds,dailyrainin,SoftwareType,DateUTC
2013-03-22 00:02:00,23.4,9.6,29.06,ESE,112,0.0,0.0,55,0.00,,---,0.00,VWS V14.01,2013-03-22 05:02:00,
2013-03-22 00:07:00,23.2,9.4,29.06,ENE,68,0.0,0.0,55,0.00,,---,0.00,VWS V14.01,2013-03-22 05:07:00,
2013-03-22 00:12:00,23.2,9.4,29.06,East,90,0.0,0.0,55,0.00,,---,0.00,VWS V14.01,2013-03-22 05:12:00,
2013-03-22 00:17:00,23.0,9.7,29.03,ESE,112,0.0,0.0,56,0.00,,---,0.00,VWS V14.01,2013-03-22 05:17:00,
2013-03-22 00:23:00,23.0,9.7,29.03,ESE,112,0.0,0.0,56,0.00,,---,0.00,VWS V14.01,2013-03-22 05:23:00,
2013-03-22 00:28:00,22.8,9.5,29.03,East,90,0.0,0.0,56,0.00,,---,0.00,VWS V14.01,2013-03-22 05:28:00,
2013-03-22 00:33:00,22.8,9.5,29.06,East,90,0.0,0.0,56,0.00,,---,0.00,VWS V14.01,2013-03-22 05:33:00,
2013-03-22 00:38:00,22.8,9.5,29.06,East,90,0.0,0.0,56,0.00,,---,0.00,VWS V14.01,2013-03-22 05:38:00,
2013-03-22 00:43:00,22.6,9.3,29.06,East,90,0.0,0.0,56,0.00,,---,0.00,VWS V14.01,2013-03-22 05:43:00,
2013-03-22 00:48:00,22.5,9.1,29.06,East,90,0.0,0.0,56,0.00,,---,0.00,VWS V14.01,2013-03-22 05:48:00,
2013-03-22 00:53:00,22.3,9.4,29.06,East,90,0.0,0.0,57,0.00,,---,0.00,VWS V14.01,2013-03-22 05:53:00,
2013-03-22 00:58:00,22.3,9.4,29.06,East,90,0.0,0.0,57,0.00,,---,0.00,VWS V14.01,2013-03-22 05:58:00,
2013-03-22 01:03:00,22.3,9.4,29.06,East,90,0.0,0.0,57,0.00,,---,0.00,VWS V14.01,2013-03-22 06:03:00,
2013-03-22 01:08:00,22.1,9.2,29.06,East,90,0.0,0.0,57,0.00,,---,0.00,VWS V14.01,2013-03-22 06:08:00,
2013-03-22 01:13:00,22.1,9.2,29.06,East,90,0.0,0.0,57,0.00,,---,0.00,VWS V14.01,2013-03-22 06:13:00,
2013-03-22 01:18:00,21.9,9.0,29.06,East,90,0.0,0.0,57,0.00,,---,0.00,VWS V14.01,2013-03-22 06:18:00,
2013-03-22 01:24:00,22.1,9.6,29.06,East,90,0.0,0.0,58,0.00,,---,0.00,VWS V14.01,2013-03-22 06:24:00,
2013-03-22 01:29:00,22.1,9.6,29.06,ESE,112,0.0,0.0,58,0.00,,---,0.00,VWS V14.01,2013-03-22 06:29:00,
2013-03-22 01:34:00,22.1,9.6,29.06,East,90,0.0,0.0,58,0.00,,---,0.00,VWS V14.01,2013-03-22 06:34:00,
2013-03-22 01:39:00,22.1,10.0,29.06,East,90,0.0,0.0,59,0.00,,---,0.00,VWS V14.01,2013-03-22 06:39:00,
2013-03-22 01:44:00,22.1,10.0,29.06,East,90,0.0,0.0,59,0.00,,---,0.00,VWS V14.01,2013-03-22 06:44:00,
2013-03-22 01:49:00,22.1,10.0,29.06,East,90,0.0,0.0,59,0.00,,---,0.00,VWS V14.01,2013-03-22 06:49:00,
2013-03-22 01:54:00,22.1,10.0,29.06,ESE,112,0.0,0.0,59,0.00,,---,0.00,VWS V14.01,2013-03-22 06:54:00,
2013-03-22 01:59:00,22.1,10.4,29.06,East,90,0.0,0.0,60,0.00,,---,0.00,VWS V14.01,2013-03-22 06:59:00,
2013-03-22 02:05:00,22.1,10.4,29.06,East,90,0.0,0.0,60,0.00,,---,0.00,VWS V14.01,2013-03-22 07:05:00,
2013-03-22 02:10:00,22.1,10.0,29.06,East,90,0.0,0.0,59,0.00,,---,0.00,VWS V14.01,2013-03-22 07:10:00,
2013-03-22 02:15:00,22.1,10.0,29.06,East,90,0.0,0.0,59,0.00,,---,0.00,VWS V14.01,2013-03-22 07:15:00,
2013-03-22 02:20:00,21.9,10.2,29.06,NE,45,0.0,0.0,60,0.00,,---,0.00,VWS V14.01,2013-03-22 07:20:00,
2013-03-22 02:25:00,21.9,10.2,29.06,East,90,0.0,0.0,60,0.00,,---,0.00,VWS V14.01,2013-03-22 07:25:00,
2013-03-22 02:30:00,21.9,10.2,29.06,East,90,0.0,0.0,60,0.00,,---,0.00,VWS V14.01,2013-03-22 07:30:00,
2013-03-22 02:35:00,21.9,10.2,29.06,East,90,0.0,0.0,60,0.00,,---,0.00,VWS V14.01,2013-03-22 07:35:00,
2013-03-22 02:40:00,21.9,10.6,29.06,East,90,0.0,0.0,61,0.00,,---,0.00,VWS V14.01,2013-03-22 07:40:00,
2013-03-22 02:45:00,21.9,10.6,29.06,East,90,0.0,0.0,61,0.00,,---,0.00,VWS V14.01,2013-03-22 07:45:00,
2013-03-22 02:50:00,21.9,10.6,29.06,NE,45,0.0,0.0,61,0.00,,---,0.00,VWS V14.01,2013-03-22 07:50:00,
2013-03-22 02:55:00,21.9,10.6,29.06,ENE,68,0.0,0.0,61,0.00,,---,0.00,VWS V14.01,2013-03-22 07:55:00,
2013-03-22 03:01:00,22.1,10.7,29.06,SW,225,0.0,0.0,61,0.00,,---,0.00,VWS V14.01,2013-03-22 08:01:00,
2013-03-22 03:06:00,22.1,10.7,29.06,ESE,112,0.0,0.0,61,0.00,,---,0.00,VWS V14.01,2013-03-22 08:06:00,
2013-03-22 03:11:00,21.9,10.6,29.06,East,90,0.0,0.0,61,0.00,,---,0.00,VWS V14.01,2013-03-22 08:11:00,
2013-03-22 03:16:00,21.9,10.6,29.06,East,90,0.0,0.0,61,0.00,,---,0.00,VWS V14.01,2013-03-22 08:16:00,
2013-03-22 03:21:00,21.9,10.6,29.06,East,90,0.0,0.0,61,0.00,,---,0.00,VWS V14.01,2013-03-22 08:21:00,
2013-03-22 03:26:00,21.7,10.4,29.06,East,90,0.0,0.0,61,0.00,,---,0.00,VWS V14.01,2013-03-22 08:26:00,
2013-03-22 03:31:00,21.7,10.7,29.06,East,90,0.0,0.0,62,0.00,,---,0.00,VWS V14.01,2013-03-22 08:31:00,
2013-03-22 03:36:00,21.6,10.6,29.06,East,90,0.0,0.0,62,0.00,,---,0.00,VWS V14.01,2013-03-22 08:36:00,
2013-03-22 03:41:00,21.4,10.4,29.06,East,90,0.0,0.0,62,0.00,,---,0.00,VWS V14.01,2013-03-22 08:41:00,
2013-03-22 03:46:00,21.4,10.4,29.06,East,90,0.0,0.0,62,0.00,,---,0.00,VWS V14.01,2013-03-22 08:46:00,
2013-03-22 03:52:00,21.4,10.4,29.06,East,90,0.0,0.0,62,0.00,,---,0.00,VWS V14.01,2013-03-22 08:52:00,
2013-03-22 03:57:00,21.2,10.6,29.06,South,180,0.0,0.0,63,0.00,,---,0.00,VWS V14.01,2013-03-22 08:57:00,
2013-03-22 04:02:00,21.2,10.6,29.06,South,180,0.0,0.0,63,0.00,,---,0.00,VWS V14.01,2013-03-22 09:02:00,
2013-03-22 04:07:00,21.2,10.6,29.06,South,180,0.0,0.0,63,0.00,,---,0.00,VWS V14.01,2013-03-22 09:07:00,
2013-03-22 04:12:00,21.2,10.6,29.06,South,180,0.0,0.0,63,0.00,,---,0.00,VWS V14.01,2013-03-22 09:12:00,
2013-03-22 04:17:00,21.2,10.6,29.06,South,180,0.0,0.0,63,0.00,,---,0.00,VWS V14.01,2013-03-22 09:17:00,
2013-03-22 04:23:00,21.0,10.8,29.06,South,180,0.0,0.0,64,0.00,,---,0.00,VWS V14.01,2013-03-22 09:23:00,
2013-03-22 04:28:00,21.0,10.8,29.06,South,180,0.0,0.0,64,0.00,,---,0.00,VWS V14.01,2013-03-22 09:28:00,
2013-03-22 04:33:00,21.0,10.8,29.06,East,90,0.0,0.0,64,0.00,,---,0.00,VWS V14.01,2013-03-22 09:33:00,
2013-03-22 04:38:00,21.0,10.8,29.06,East,90,0.0,0.0,64,0.00,,---,0.00,VWS V14.01,2013-03-22 09:38:00,
2013-03-22 04:43:00,21.0,10.8,29.06,East,90,0.0,0.0,64,0.00,,---,0.00,VWS V14.01,2013-03-22 09:43:00,
2013-03-22 04:48:00,21.0,10.8,29.03,East,90,0.0,0.0,64,0.00,,---,0.00,VWS V14.01,2013-03-22 09:48:00,
2013-03-22 04:53:00,21.0,11.1,29.03,East,90,0.0,0.0,65,0.00,,---,0.00,VWS V14.01,2013-03-22 09:53:00,
2013-03-22 04:58:00,21.0,11.1,29.03,East,90,0.0,0.0,65,0.00,,---,0.00,VWS V14.01,2013-03-22 09:58:00,
2013-03-22 05:03:00,21.0,11.5,29.03,East,90,0.0,0.0,66,0.00,,---,0.00,VWS V14.01,2013-03-22 10:03:00,
2013-03-22 05:09:00,21.0,11.5,29.03,SSE,158,0.0,0.0,66,0.00,,---,0.00,VWS V14.01,2013-03-22 10:09:00,
2013-03-22 05:14:00,21.0,11.5,29.03,SE,135,0.0,0.0,66,0.00,,---,0.00,VWS V14.01,2013-03-22 10:14:00,
2013-03-22 05:19:00,20.8,11.3,29.03,ESE,112,0.0,0.0,66,0.00,,---,0.00,VWS V14.01,2013-03-22 10:19:00,
2013-03-22 05:24:00,20.8,11.6,29.03,ENE,68,0.0,0.0,67,0.00,,---,0.00,VWS V14.01,2013-03-22 10:24:00,
2013-03-22 05:29:00,20.8,12.0,29.03,East,90,0.0,0.0,68,0.00,,---,0.00,VWS V14.01,2013-03-22 10:29:00,
2013-03-22 05:34:00,20.8,11.6,29.03,ENE,68,0.0,0.0,67,0.00,,---,0.00,VWS V14.01,2013-03-22 10:34:00,
2013-03-22 05:39:00,20.7,11.4,29.03,SSE,158,0.0,0.0,67,0.00,,---,0.00,VWS V14.01,2013-03-22 10:39:00,
2013-03-22 05:44:00,20.7,11.4,29.03,SW,225,0.0,0.0,67,0.00,,---,0.00,VWS V14.01,2013-03-22 10:44:00,
2013-03-22 05:50:00,20.7,11.1,29.03,SSW,202,0.0,0.0,66,0.00,,---,0.00,VWS V14.01,2013-03-22 10:50:00,
2013-03-22 05:55:00,20.5,10.9,29.03,SSE,158,0.0,0.0,66,0.00,,---,0.00,VWS V14.01,2013-03-22 10:55:00,
2013-03-22 06:00:00,20.5,10.9,29.03,East,90,0.0,0.0,66,0.00,,---,0.00,VWS V14.01,2013-03-22 11:00:00,
2013-03-22 06:05:00,20.3,10.8,29.03,East,90,0.0,0.0,66,0.00,,---,0.00,VWS V14.01,2013-03-22 11:05:00,
2013-03-22 06:10:00,20.3,10.4,29.03,ENE,68,0.0,0.0,65,0.00,,---,0.00,VWS V14.01,2013-03-22 11:10:00,
2013-03-22 06:15:00,20.3,10.4,29.03,East,90,0.0,0.0,65,0.00,,---,0.00,VWS V14.01,2013-03-22 11:15:00,
2013-03-22 06:20:00,20.1,10.3,29.03,East,90,0.0,0.0,65,0.00,,---,0.00,VWS V14.01,2013-03-22 11:20:00,
2013-03-22 06:25:00,20.1,10.3,29.03,NE,45,0.0,0.0,65,0.00,,---,0.00,VWS V14.01,2013-03-22 11:25:00,
2013-03-22 06:30:00,19.9,10.1,29.06,East,90,0.0,0.0,65,0.00,,---,0.00,VWS V14.01,2013-03-22 11:30:00,
2013-03-22 06:35:00,19.9,9.7,29.06,SE,135,0.0,0.0,64,0.00,,---,0.00,VWS V14.01,2013-03-22 11:35:00,
2013-03-22 06:41:00,19.9,9.7,29.06,ENE,68,0.0,0.0,64,0.00,,---,0.00,VWS V14.01,2013-03-22 11:41:00,
2013-03-22 06:46:00,19.9,9.7,29.06,ESE,112,0.0,0.0,64,0.00,,---,0.00,VWS V14.01,2013-03-22 11:46:00,
2013-03-22 06:51:00,19.8,9.6,29.06,ESE,112,0.0,0.0,64,0.00,,---,0.00,VWS V14.01,2013-03-22 11:51:00,
2013-03-22 06:56:00,19.8,9.6,29.06,SSE,158,0.0,0.0,64,0.00,,---,0.00,VWS V14.01,2013-03-22 11:56:00,
2013-03-22 07:01:00,19.8,9.6,29.06,ESE,112,0.0,0.0,64,0.00,,---,0.00,VWS V14.01,2013-03-22 12:01:00,
2013-03-22 07:06:00,19.8,9.6,29.06,East,90,0.0,0.0,64,0.00,,---,0.00,VWS V14.01,2013-03-22 12:06:00,
2013-03-22 07:12:00,19.8,9.6,29.06,ESE,112,0.0,0.0,64,0.00,,---,0.00,VWS V14.01,2013-03-22 12:12:00,
2013-03-22 07:17:00,19.8,9.6,29.06,ENE,68,0.0,0.0,64,0.00,,---,0.00,VWS V14.01,2013-03-22 12:17:00,
2013-03-22 07:22:00,19.8,9.6,29.06,ESE,112,0.0,0.0,64,0.00,,---,0.00,VWS V14.01,2013-03-22 12:22:00,
2013-03-22 07:27:00,19.8,9.6,29.06,ESE,112,0.0,0.0,64,0.00,,---,0.00,VWS V14.01,2013-03-22 12:27:00,
2013-03-22 07:32:00,19.8,9.2,29.06,East,90,0.0,0.0,63,0.00,,---,0.00,VWS V14.01,2013-03-22 12:32:00,
2013-03-22 07:37:00,19.8,9.2,29.06,ENE,68,0.0,0.0,63,0.00,,---,0.00,VWS V14.01,2013-03-22 12:37:00,
2013-03-22 07:42:00,19.9,9.4,29.06,ENE,68,0.0,0.0,63,0.00,,---,0.00,VWS V14.01,2013-03-22 12:42:00,
2013-03-22 07:47:00,19.9,9.4,29.06,East,90,0.0,0.0,63,0.00,,---,0.00,VWS V14.01,2013-03-22 12:47:00,
2013-03-22 07:53:00,20.1,9.6,29.06,ENE,68,0.0,0.0,63,0.00,,---,0.00,VWS V14.01,2013-03-22 12:53:00,
2013-03-22 07:58:00,20.1,9.6,29.06,East,90,0.0,0.0,63,0.00,,---,0.00,VWS V14.01,2013-03-22 12:58:00,
2013-03-22 08:03:00,20.3,9.4,29.06,NE,45,0.0,0.0,62,0.00,,---,0.00,VWS V14.01,2013-03-22 13:03:00,
2013-03-22 08:08:00,20.5,9.6,29.06,East,90,0.0,0.0,62,0.00,,---,0.00,VWS V14.01,2013-03-22 13:08:00,
2013-03-22 08:13:00,20.8,9.9,29.06,ENE,68,0.0,0.0,62,0.00,,---,0.00,VWS V14.01,2013-03-22 13:13:00,
2013-03-22 08:18:00,21.0,9.7,29.06,ENE,68,0.0,0.0,61,0.00,,---,0.00,VWS V14.01,2013-03-22 13:18:00,
2013-03-22 08:23:00,21.6,10.2,29.06,East,90,0.0,0.0,61,0.00,,---,0.00,VWS V14.01,2013-03-22 13:23:00,
2013-03-22 08:28:00,22.1,10.0,29.06,ENE,68,0.0,0.0,59,0.00,,---,0.00,VWS V14.01,2013-03-22 13:28:00,
2013-03-22 08:33:00,22.8,10.6,29.06,SSE,158,0.0,0.0,59,0.00,,---,0.00,VWS V14.01,2013-03-22 13:33:00,
2013-03-22 08:38:00,23.9,11.7,29.06,SE,135,0.0,0.0,59,0.00,,---,0.00,VWS V14.01,2013-03-22 13:38:00,
2013-03-22 08:44:00,24.4,12.2,29.06,ENE,68,0.0,0.0,59,0.00,,---,0.00,VWS V14.01,2013-03-22 13:44:00,
2013-03-22 08:49:00,25.0,11.5,29.06,ENE,68,0.0,0.0,56,0.00,,---,0.00,VWS V14.01,2013-03-22 13:49:00,
2013-03-22 08:54:00,26.1,12.5,29.06,East,90,0.0,0.0,56,0.00,,---,0.00,VWS V14.01,2013-03-22 13:54:00,
2013-03-22 08:59:00,27.7,13.6,29.06,ENE,68,0.0,0.0,55,0.00,,---,0.00,VWS V14.01,2013-03-22 13:59:00,
2013-03-22 09:04:00,28.6,14.1,29.06,NE,45,0.0,0.0,54,0.00,,---,0.00,VWS V14.01,2013-03-22 14:04:00,
2013-03-22 09:09:00,30.2,14.7,29.06,NE,45,0.0,0.0,52,0.00,,---,0.00,VWS V14.01,2013-03-22 14:09:00,
2013-03-22 09:14:00,30.9,14.9,29.06,ESE,112,0.0,0.0,51,0.00,,---,0.00,VWS V14.01,2013-03-22 14:14:00,
2013-03-22 09:19:00,31.1,13.2,29.06,East,90,0.0,0.0,47,0.00,,---,0.00,VWS V14.01,2013-03-22 14:19:00,
2013-03-22 09:24:00,30.9,13.1,29.06,NE,45,0.0,0.0,47,0.00,,---,0.00,VWS V14.01,2013-03-22 14:24:00,
2013-03-22 09:29:00,31.3,12.9,29.06,ENE,68,0.0,0.0,46,0.00,,---,0.00,VWS V14.01,2013-03-22 14:29:00,
2013-03-22 09:34:00,31.5,13.1,29.06,East,90,0.0,0.0,46,0.00,,---,0.00,VWS V14.01,2013-03-22 14:34:00,
2013-03-22 09:39:00,32.4,13.9,29.06,SE,135,0.0,0.0,46,0.00,,---,0.00,VWS V14.01,2013-03-22 14:39:00,
2013-03-22 09:44:00,33.3,14.7,29.06,NNE,22,0.0,0.0,46,0.00,,---,0.00,VWS V14.01,2013-03-22 14:44:00,
2013-03-22 09:50:00,34.0,14.9,29.06,ENE,68,0.0,0.0,45,0.00,,---,0.00,VWS V14.01,2013-03-22 14:50:00,
2013-03-22 09:55:00,34.5,14.9,29.06,NNE,22,0.0,0.0,44,0.00,,---,0.00,VWS V14.01,2013-03-22 14:55:00,
2013-03-22 10:00:00,34.9,15.2,29.03,East,90,0.0,0.0,44,0.00,,---,0.00,VWS V14.01,2013-03-22 15:00:00,
2013-03-22 10:05:00,35.4,15.7,29.03,ESE,112,0.0,0.0,44,0.00,,---,0.00,VWS V14.01,2013-03-22 15:05:00,
2013-03-22 10:10:00,35.2,15.0,29.03,ESE,112,0.0,0.0,43,0.00,,---,0.00,VWS V14.01,2013-03-22 15:10:00,
2013-03-22 10:15:00,35.1,14.3,29.03,ENE,68,0.0,0.0,42,0.00,,---,0.00,VWS V14.01,2013-03-22 15:15:00,
2013-03-22 10:20:00,35.2,14.5,29.03,ESE,112,0.0,0.0,42,0.00,,---,0.00,VWS V14.01,2013-03-22 15:20:00,
2013-03-22 10:25:00,35.8,14.4,29.03,ENE,68,0.0,0.0,41,0.00,,---,0.00,VWS V14.01,2013-03-22 15:25:00,
2013-03-22 10:30:00,36.0,15.1,29.03,East,90,0.0,0.0,42,0.00,,---,0.00,VWS V14.01,2013-03-22 15:30:00,
2013-03-22 10:35:00,36.1,14.7,29.03,ENE,68,0.0,0.0,41,0.00,,---,0.00,VWS V14.01,2013-03-22 15:35:00,
2013-03-22 10:41:00,36.7,15.8,29.03,ESE,112,0.0,0.0,42,0.00,,---,0.00,VWS V14.01,2013-03-22 15:41:00,
2013-03-22 10:46:00,36.9,15.4,29.03,ESE,112,0.0,0.0,41,0.00,,---,0.00,VWS V14.01,2013-03-22 15:46:00,
2013-03-22 10:51:00,37.4,15.9,29.03,ENE,68,0.0,0.0,41,0.00,,---,0.00,VWS V14.01,2013-03-22 15:51:00,
2013-03-22 10:56:00,37.9,16.4,29.03,ENE,68,0.0,0.0,41,0.00,,---,0.00,VWS V14.01,2013-03-22 15:56:00,
2013-03-22 11:01:00,38.3,16.7,29.03,East,90,0.0,0.0,41,0.00,,---,0.00,VWS V14.01,2013-03-22 16:01:00,
2013-03-22 11:06:00,37.6,15.5,29.03,ENE,68,0.0,0.0,40,0.00,,---,0.00,VWS V14.01,2013-03-22 16:06:00,
2013-03-22 11:11:00,37.8,15.6,29.03,SSE,158,0.0,0.0,40,0.00,,---,0.00,VWS V14.01,2013-03-22 16:11:00,
2013-03-22 11:16:00,38.3,16.1,29.03,ENE,68,0.0,0.0,40,0.00,,---,0.00,VWS V14.01,2013-03-22 16:16:00,
2013-03-22 11:21:00,38.7,16.4,29.03,NE,45,0.0,0.0,40,0.00,,---,0.00,VWS V14.01,2013-03-22 16:21:00,
2013-03-22 11:27:00,39.7,17.4,29.03,NE,45,0.0,0.0,40,0.00,,---,0.00,VWS V14.01,2013-03-22 16:27:00,
2013-03-22 11:32:00,40.1,17.7,29.03,NW,315,0.0,0.0,40,0.00,,---,0.00,VWS V14.01,2013-03-22 16:32:00,
2013-03-22 11:37:00,40.3,17.9,29.03,ENE,68,0.0,0.0,40,0.00,,---,0.00,VWS V14.01,2013-03-22 16:37:00,
2013-03-22 11:42:00,39.7,17.4,29.03,South,180,0.0,0.0,40,0.00,,---,0.00,VWS V14.01,2013-03-22 16:42:00,
2013-03-22 11:47:00,40.3,17.3,29.03,NE,45,0.0,0.0,39,0.00,,---,0.00,VWS V14.01,2013-03-22 16:47:00,
2013-03-22 11:52:00,39.2,16.3,29.03,WNW,292,0.0,0.0,39,0.00,,---,0.00,VWS V14.01,2013-03-22 16:52:00,
2013-03-22 11:57:00,39.0,16.8,29.03,SE,135,0.0,0.0,40,0.00,,---,0.00,VWS V14.01,2013-03-22 16:57:00,
2013-03-22 12:02:00,38.8,16.6,29.03,ENE,68,0.0,0.0,40,0.00,,---,0.00,VWS V14.01,2013-03-22 17:02:00,
2013-03-22 12:07:00,38.8,16.6,29.03,ENE,68,0.0,0.0,40,0.00,,---,0.00,VWS V14.01,2013-03-22 17:07:00,
2013-03-22 12:12:00,39.4,16.5,29.03,NE,45,0.0,0.0,39,0.00,,---,0.00,VWS V14.01,2013-03-22 17:12:00,
2013-03-22 12:17:00,40.5,17.5,29.03,East,90,0.0,0.0,39,0.00,,---,0.00,VWS V14.01,2013-03-22 17:17:00,
2013-03-22 12:22:00,40.1,17.1,29.03,North,0,0.0,0.0,39,0.00,,---,0.00,VWS V14.01,2013-03-22 17:22:00,
2013-03-22 12:27:00,38.3,16.1,29.03,West,270,0.0,0.0,40,0.00,,---,0.00,VWS V14.01,2013-03-22 17:27:00,
2013-03-22 12:32:00,38.1,15.4,29.03,East,90,0.0,0.0,39,0.00,,---,0.00,VWS V14.01,2013-03-22 17:32:00,
2013-03-22 12:38:00,37.9,15.8,29.03,NNE,22,0.0,0.0,40,0.00,,---,0.00,VWS V14.01,2013-03-22 17:38:00,
2013-03-22 12:43:00,38.1,15.9,29.03,ESE,112,0.0,0.0,40,0.00,,---,0.00,VWS V14.01,2013-03-22 17:43:00,
2013-03-22 12:48:00,38.8,16.6,29.03,NE,45,0.0,0.0,40,0.00,,---,0.00,VWS V14.01,2013-03-22 17:48:00,
2013-03-22 12:53:00,38.8,16.6,29.03,WSW,248,0.0,0.0,40,0.00,,---,0.00,VWS V14.01,2013-03-22 17:53:00,
2013-03-22 12:58:00,39.0,16.8,29.03,WSW,248,0.0,0.0,40,0.00,,---,0.00,VWS V14.01,2013-03-22 17:58:00,
2013-03-22 13:03:00,39.0,16.8,29.03,ESE,112,0.0,0.0,40,0.00,,---,0.00,VWS V14.01,2013-03-22 18:03:00,
2013-03-22 13:08:00,38.7,16.4,29.03,East,90,0.0,0.0,40,0.00,,---,0.00,VWS V14.01,2013-03-22 18:08:00,
2013-03-22 13:13:00,38.8,16.6,29.03,East,90,0.0,0.0,40,0.00,,---,0.00,VWS V14.01,2013-03-22 18:13:00,
2013-03-22 13:18:00,39.0,16.8,29.03,WNW,292,0.0,0.0,40,0.00,,---,0.00,VWS V14.01,2013-03-22 18:18:00,
2013-03-22 13:24:00,39.4,16.5,29.03,ENE,68,0.0,0.0,39,0.00,,---,0.00,VWS V14.01,2013-03-22 18:24:00,
2013-03-22 13:29:00,39.2,16.3,29.03,ENE,68,0.0,0.0,39,0.00,,---,0.00,VWS V14.01,2013-03-22 18:29:00,
2013-03-22 13:34:00,39.6,16.7,29.03,NE,45,0.0,0.0,39,0.00,,---,0.00,VWS V14.01,2013-03-22 18:34:00,
2013-03-22 13:39:00,39.9,17.0,29.03,ENE,68,0.0,0.0,39,0.00,,---,0.00,VWS V14.01,2013-03-22 18:39:00,
2013-03-22 13:44:00,39.9,17.0,29.03,East,90,0.0,0.0,39,0.00,,---,0.00,VWS V14.01,2013-03-22 18:44:00,
2013-03-22 13:49:00,39.7,16.8,29.03,East,90,0.0,0.0,39,0.00,,---,0.00,VWS V14.01,2013-03-22 18:49:00,
2013-03-22 13:55:00,39.9,17.0,29.03,ENE,68,0.0,0.0,39,0.00,,---,0.00,VWS V14.01,2013-03-22 18:55:00,
2013-03-22 14:00:00,39.7,16.8,29.03,NE,45,0.0,0.0,39,0.00,,---,0.00,VWS V14.01,2013-03-22 19:00:00,
2013-03-22 14:06:00,39.6,16.7,29.03,East,90,0.0,0.0,39,0.00,,---,0.00,VWS V14.01,2013-03-22 19:06:00,
2013-03-22 14:11:00,38.8,16.0,29.03,NW,315,0.0,0.0,39,0.00,,---,0.00,VWS V14.01,2013-03-22 19:11:00,
2013-03-22 14:16:00,38.5,15.7,29.03,WNW,292,0.0,0.0,39,0.00,,---,0.00,VWS V14.01,2013-03-22 19:16:00,
2013-03-22 14:21:00,38.8,16.0,29.03,NNW,338,0.0,0.0,39,0.00,,---,0.00,VWS V14.01,2013-03-22 19:21:00,
2013-03-22 14:26:00,39.0,16.2,29.03,ENE,68,0.0,0.0,39,0.00,,---,0.00,VWS V14.01,2013-03-22 19:26:00,
2013-03-22 14:32:00,39.0,16.2,29.00,NE,45,0.0,0.0,39,0.00,,---,0.00,VWS V14.01,2013-03-22 19:32:00,
2013-03-22 14:37:00,39.0,16.2,29.00,NNW,338,0.0,0.0,39,0.00,,---,0.00,VWS V14.01,2013-03-22 19:37:00,
2013-03-22 14:42:00,39.2,16.3,29.00,ESE,112,0.0,0.0,39,0.00,,---,0.00,VWS V14.01,2013-03-22 19:42:00,
2013-03-22 14:47:00,39.4,16.5,29.03,NW,315,0.0,0.0,39,0.00,,---,0.00,VWS V14.01,2013-03-22 19:47:00,
2013-03-22 14:52:00,39.2,16.3,29.03,ENE,68,0.0,0.0,39,0.00,,---,0.00,VWS V14.01,2013-03-22 19:52:00,
2013-03-22 14:57:00,39.4,16.5,29.03,SE,135,0.0,0.0,39,0.00,,---,0.00,VWS V14.01,2013-03-22 19:57:00,
2013-03-22 15:02:00,39.2,16.3,29.03,East,90,0.0,0.0,39,0.00,,---,0.00,VWS V14.01,2013-03-22 20:02:00,
2013-03-22 15:07:00,39.4,16.5,29.03,ESE,112,0.0,0.0,39,0.00,,---,0.00,VWS V14.01,2013-03-22 20:07:00,
2013-03-22 15:12:00,39.4,16.5,29.03,ENE,68,0.0,0.0,39,0.00,,---,0.00,VWS V14.01,2013-03-22 20:12:00,
2013-03-22 15:17:00,39.4,16.5,29.00,ENE,68,0.0,0.0,39,0.00,,---,0.00,VWS V14.01,2013-03-22 20:17:00,
2013-03-22 15:22:00,39.2,16.3,29.00,ENE,68,0.0,0.0,39,0.00,,---,0.00,VWS V14.01,2013-03-22 20:22:00,
2013-03-22 15:27:00,39.0,16.2,29.00,NW,315,0.0,0.0,39,0.00,,---,0.00,VWS V14.01,2013-03-22 20:27:00,
2013-03-22 15:32:00,39.0,16.2,29.00,East,90,0.0,0.0,39,0.00,,---,0.00,VWS V14.01,2013-03-22 20:32:00,
2013-03-22 15:38:00,39.0,16.2,29.00,ENE,68,0.0,0.0,39,0.00,,---,0.00,VWS V14.01,2013-03-22 20:38:00,
2013-03-22 15:43:00,39.2,16.3,29.00,East,90,0.0,0.0,39,0.00,,---,0.00,VWS V14.01,2013-03-22 20:43:00,
2013-03-22 15:48:00,39.4,16.5,29.03,NE,45,0.0,0.0,39,0.00,,---,0.00,VWS V14.01,2013-03-22 20:48:00,
2013-03-22 15:53:00,39.2,16.3,29.03,North,0,0.0,0.0,39,0.00,,---,0.00,VWS V14.01,2013-03-22 20:53:00,
2013-03-22 15:58:00,39.2,16.3,29.03,NW,315,0.0,0.0,39,0.00,,---,0.00,VWS V14.01,2013-03-22 20:58:00,
2013-03-22 16:03:00,39.2,16.3,29.00,WNW,292,0.0,0.0,39,0.00,,---,0.00,VWS V14.01,2013-03-22 21:03:00,
2013-03-22 16:08:00,39.2,16.3,29.00,West,270,0.0,0.0,39,0.00,,---,0.00,VWS V14.01,2013-03-22 21:08:00,
2013-03-22 16:13:00,39.4,16.5,29.00,East,90,0.0,0.0,39,0.00,,---,0.00,VWS V14.01,2013-03-22 21:13:00,
2013-03-22 16:19:00,39.2,16.3,29.00,SSW,202,0.0,0.0,39,0.00,,---,0.00,VWS V14.01,2013-03-22 21:19:00,
2013-03-22 16:24:00,39.2,16.3,29.00,ENE,68,0.0,0.0,39,0.00,,---,0.00,VWS V14.01,2013-03-22 21:24:00,
2013-03-22 16:29:00,39.0,16.2,29.00,ENE,68,0.0,0.0,39,0.00,,---,0.00,VWS V14.01,2013-03-22 21:29:00,
2013-03-22 16:34:00,38.7,15.9,29.00,ESE,112,0.0,0.0,39,0.00,,---,0.00,VWS V14.01,2013-03-22 21:34:00,
2013-03-22 16:39:00,38.7,15.9,29.00,ESE,112,0.0,0.0,39,0.00,,---,0.00,VWS V14.01,2013-03-22 21:39:00,
2013-03-22 16:44:00,38.7,15.9,29.00,ESE,112,0.0,0.0,39,0.00,,---,0.00,VWS V14.01,2013-03-22 21:44:00,
2013-03-22 16:49:00,38.5,15.7,29.00,WNW,292,0.0,0.0,39,0.00,,---,0.00,VWS V14.01,2013-03-22 21:49:00,
2013-03-22 16:54:00,38.5,15.7,29.00,ENE,68,0.0,0.0,39,0.00,,---,0.00,VWS V14.01,2013-03-22 21:54:00,
2013-03-22 16:59:00,38.5,15.7,29.00,ESE,112,0.0,0.0,39,0.00,,---,0.00,VWS V14.01,2013-03-22 21:59:00,
2013-03-22 17:05:00,38.5,15.7,29.00,East,90,0.0,0.0,39,0.00,,---,0.00,VWS V14.01,2013-03-22 22:05:00,
2013-03-22 17:10:00,38.3,15.5,29.00,West,270,0.0,0.0,39,0.00,,---,0.00,VWS V14.01,2013-03-22 22:10:00,
2013-03-22 17:15:00,38.3,15.5,29.00,ENE,68,0.0,0.0,39,0.00,,---,0.00,VWS V14.01,2013-03-22 22:15:00,
2013-03-22 17:20:00,38.3,15.5,29.00,ESE,112,0.0,0.0,39,0.00,,---,0.00,VWS V14.01,2013-03-22 22:20:00,
2013-03-22 17:25:00,38.1,15.4,29.00,East,90,0.0,0.0,39,0.00,,---,0.00,VWS V14.01,2013-03-22 22:25:00,
2013-03-22 17:30:00,38.1,15.4,29.00,ENE,68,0.0,0.0,39,0.00,,---,0.00,VWS V14.01,2013-03-22 22:30:00,
2013-03-22 17:35:00,38.1,15.4,29.00,East,90,0.0,0.0,39,0.00,,---,0.00,VWS V14.01,2013-03-22 22:35:00,
2013-03-22 17:40:00,37.9,15.2,29.00,SSE,158,0.0,0.0,39,0.00,,---,0.00,VWS V14.01,2013-03-22 22:40:00,
2013-03-22 17:45:00,37.9,15.2,29.00,WNW,292,0.0,0.0,39,0.00,,---,0.00,VWS V14.01,2013-03-22 22:45:00,
2013-03-22 17:51:00,37.6,14.9,29.00,East,90,0.0,0.0,39,0.00,,---,0.00,VWS V14.01,2013-03-22 22:51:00,
2013-03-22 17:56:00,37.4,14.7,29.00,East,90,0.0,0.0,39,0.00,,---,0.00,VWS V14.01,2013-03-22 22:56:00,
2013-03-22 18:01:00,37.2,15.1,29.00,SW,225,0.0,0.0,40,0.00,,---,0.00,VWS V14.01,2013-03-22 23:01:00,
2013-03-22 18:06:00,37.0,15.0,29.00,SW,225,0.0,0.0,40,0.00,,---,0.00,VWS V14.01,2013-03-22 23:06:00,
2013-03-22 18:11:00,37.0,15.0,29.00,SW,225,0.0,0.0,40,0.00,,---,0.00,VWS V14.01,2013-03-22 23:11:00,
2013-03-22 18:17:00,36.9,14.8,29.03,WSW,248,0.0,0.0,40,0.00,,---,0.00,VWS V14.01,2013-03-22 23:17:00,
2013-03-22 18:22:00,36.7,14.6,29.03,East,90,0.0,0.0,40,0.00,,---,0.00,VWS V14.01,2013-03-22 23:22:00,
2013-03-22 18:27:00,36.7,14.6,29.03,East,90,0.0,0.0,40,0.00,,---,0.00,VWS V14.01,2013-03-22 23:27:00,
2013-03-22 18:32:00,36.5,14.5,29.03,ESE,112,0.0,0.0,40,0.00,,---,0.00,VWS V14.01,2013-03-22 23:32:00,
2013-03-22 18:37:00,36.3,14.3,29.03,East,90,0.0,0.0,40,0.00,,---,0.00,VWS V14.01,2013-03-22 23:37:00,
2013-03-22 18:42:00,36.3,14.3,29.03,WNW,292,0.0,0.0,40,0.00,,---,0.00,VWS V14.01,2013-03-22 23:42:00,
2013-03-22 18:47:00,36.1,14.2,29.03,WSW,248,0.0,0.0,40,0.00,,---,0.00,VWS V14.01,2013-03-22 23:47:00,
2013-03-22 18:52:00,36.1,14.2,29.03,East,90,0.0,0.0,40,0.00,,---,0.00,VWS V14.01,2013-03-22 23:52:00,
2013-03-22 18:57:00,36.0,14.6,29.03,ESE,112,0.0,0.0,41,0.00,,---,0.00,VWS V14.01,2013-03-22 23:57:00,
2013-03-22 19:02:00,35.8,14.4,29.03,East,90,0.0,0.0,41,0.00,,---,0.00,VWS V14.01,2013-03-23 00:02:00,
2013-03-22 19:07:00,35.8,14.4,29.03,SSW,202,0.0,0.0,41,0.00,,---,0.00,VWS V14.01,2013-03-23 00:07:00,
2013-03-22 19:12:00,35.6,14.2,29.03,East,90,0.0,0.0,41,0.00,,---,0.00,VWS V14.01,2013-03-23 00:12:00,
2013-03-22 19:17:00,35.4,14.6,29.03,ESE,112,0.0,0.0,42,0.00,,---,0.00,VWS V14.01,2013-03-23 00:17:00,
2013-03-22 19:22:00,35.4,14.6,29.03,WNW,292,0.0,0.0,42,0.00,,---,0.00,VWS V14.01,2013-03-23 00:22:00,
2013-03-22 19:27:00,35.2,14.5,29.03,SW,225,0.0,0.0,42,0.00,,---,0.00,VWS V14.01,2013-03-23 00:27:00,
2013-03-22 19:32:00,35.1,14.8,29.03,East,90,0.0,0.0,43,0.00,,---,0.00,VWS V14.01,2013-03-23 00:32:00,
2013-03-22 19:37:00,35.1,14.8,29.03,SSW,202,0.0,0.0,43,0.00,,---,0.00,VWS V14.01,2013-03-23 00:37:00,
2013-03-22 19:42:00,34.9,14.7,29.03,East,90,0.0,0.0,43,0.00,,---,0.00,VWS V14.01,2013-03-23 00:42:00,
2013-03-22 19:48:00,34.9,15.2,29.03,East,90,0.0,0.0,44,0.00,,---,0.00,VWS V14.01,2013-03-23 00:48:00,
2013-03-22 19:53:00,34.9,15.2,29.03,NE,45,0.0,0.0,44,0.00,,---,0.00,VWS V14.01,2013-03-23 00:53:00,
2013-03-22 19:58:00,34.7,15.0,29.03,ESE,112,0.0,0.0,44,0.00,,---,0.00,VWS V14.01,2013-03-23 00:58:00,
2013-03-22 20:03:00,34.7,15.6,29.03,ESE,112,0.0,0.0,45,0.00,,---,0.00,VWS V14.01,2013-03-23 01:03:00,
2013-03-22 20:08:00,34.5,15.9,29.03,East,90,0.0,0.0,46,0.00,,---,0.00,VWS V14.01,2013-03-23 01:08:00,
2013-03-22 20:13:00,34.5,15.9,29.03,NE,45,0.0,0.0,46,0.00,,---,0.00,VWS V14.01,2013-03-23 01:13:00,
2013-03-22 20:18:00,34.5,15.9,29.03,SW,225,0.0,0.0,46,0.00,,---,0.00,VWS V14.01,2013-03-23 01:18:00,
2013-03-22 20:23:00,34.5,15.9,29.03,ENE,68,0.0,0.0,46,0.00,,---,0.00,VWS V14.01,2013-03-23 01:23:00,
2013-03-22 20:28:00,34.5,15.9,29.03,ESE,112,0.0,0.0,46,0.00,,---,0.00,VWS V14.01,2013-03-23 01:28:00,
2013-03-22 20:33:00,34.5,15.9,29.03,East,90,0.0,0.0,46,0.00,,---,0.00,VWS V14.01,2013-03-23 01:33:00,
2013-03-22 20:38:00,34.5,15.9,29.03,East,90,0.0,0.0,46,0.00,,---,0.00,VWS V14.01,2013-03-23 01:38:00,
2013-03-22 20:43:00,34.5,15.9,29.03,East,90,0.0,0.0,46,0.00,,---,0.00,VWS V14.01,2013-03-23 01:43:00,
2013-03-22 20:48:00,34.5,15.9,29.03,East,90,0.0,0.0,46,0.00,,---,0.00,VWS V14.01,2013-03-23 01:48:00,
2013-03-22 20:53:00,34.2,17.0,29.03,East,90,0.0,0.0,49,0.00,,---,0.00,VWS V14.01,2013-03-23 01:53:00,
2013-03-22 20:58:00,34.0,16.8,29.03,WSW,248,0.0,0.0,49,0.00,,---,0.00,VWS V14.01,2013-03-23 01:58:00,
2013-03-22 21:03:00,34.0,17.3,29.03,ENE,68,0.0,0.0,50,0.00,,---,0.00,VWS V14.01,2013-03-23 02:03:00,
2013-03-22 21:08:00,34.0,17.3,29.03,SSE,158,0.0,0.0,50,0.00,,---,0.00,VWS V14.01,2013-03-23 02:08:00,
2013-03-22 21:13:00,33.8,17.1,29.06,WSW,248,0.0,0.0,50,0.00,,---,0.00,VWS V14.01,2013-03-23 02:13:00,
2013-03-22 21:19:00,33.8,17.1,29.06,WSW,248,0.0,0.0,50,0.00,,---,0.00,VWS V14.01,2013-03-23 02:19:00,
2013-03-22 21:24:00,33.8,17.1,29.06,WSW,248,0.0,0.0,50,0.00,,---,0.00,VWS V14.01,2013-03-23 02:24:00,
2013-03-22 21:29:00,33.6,17.4,29.06,ENE,68,0.0,0.0,51,0.00,,---,0.00,VWS V14.01,2013-03-23 02:29:00,
2013-03-22 21:34:00,33.6,17.9,29.06,WSW,248,0.0,0.0,52,0.00,,---,0.00,VWS V14.01,2013-03-23 02:34:00,
2013-03-22 21:39:00,33.6,18.3,29.06,East,90,0.0,0.0,53,0.00,,---,0.00,VWS V14.01,2013-03-23 02:39:00,
2013-03-22 21:44:00,33.6,18.3,29.06,East,90,0.0,0.0,53,0.00,,---,0.00,VWS V14.01,2013-03-23 02:44:00,
2013-03-22 21:50:00,33.4,18.6,29.06,SSW,202,0.0,0.0,54,0.00,,---,0.00,VWS V14.01,2013-03-23 02:50:00,
2013-03-22 21:54:00,33.3,18.4,29.06,SW,225,0.0,0.0,54,0.00,,---,0.00,VWS V14.01,2013-03-23 02:54:00,
2013-03-22 22:00:00,33.1,18.3,29.06,South,180,0.0,0.0,54,0.00,,---,0.00,VWS V14.01,2013-03-23 03:00:00,
2013-03-22 22:05:00,32.9,18.5,29.06,West,270,0.0,0.0,55,0.00,,---,0.00,VWS V14.01,2013-03-23 03:05:00,
2013-03-22 22:10:00,32.7,17.9,29.06,ESE,112,0.0,0.0,54,0.00,,---,0.00,VWS V14.01,2013-03-23 03:10:00,
2013-03-22 22:15:00,32.5,17.8,29.06,East,90,0.0,0.0,54,0.00,,---,0.00,VWS V14.01,2013-03-23 03:15:00,
2013-03-22 22:20:00,32.5,17.8,29.06,SW,225,0.0,0.0,54,0.00,,---,0.00,VWS V14.01,2013-03-23 03:20:00,
2013-03-22 22:25:00,32.4,17.6,29.06,East,90,0.0,0.0,54,0.00,,---,0.00,VWS V14.01,2013-03-23 03:25:00,
2013-03-22 22:30:00,32.4,17.6,29.06,East,90,0.0,0.0,54,0.00,,---,0.00,VWS V14.01,2013-03-23 03:30:00,
2013-03-22 22:35:00,32.4,18.0,29.06,East,90,0.0,0.0,55,0.00,,---,0.00,VWS V14.01,2013-03-23 03:35:00,
2013-03-22 22:40:00,32.4,18.0,29.06,ESE,112,0.0,0.0,55,0.00,,---,0.00,VWS V14.01,2013-03-23 03:40:00,
2013-03-22 22:45:00,32.4,18.0,29.06,ENE,68,0.0,0.0,55,0.00,,---,0.00,VWS V14.01,2013-03-23 03:45:00,
2013-03-22 22:51:00,32.2,17.8,29.06,ESE,112,0.0,0.0,55,0.00,,---,0.00,VWS V14.01,2013-03-23 03:51:00,
2013-03-22 22:56:00,32.2,18.3,29.06,East,90,0.0,0.0,56,0.00,,---,0.00,VWS V14.01,2013-03-23 03:56:00,
2013-03-22 23:00:00,32.2,17.8,29.06,East,90,0.0,0.0,55,0.00,,---,0.00,VWS V14.01,2013-03-23 04:00:00,
2013-03-22 23:01:00,32.2,17.8,29.06,East,90,0.0,0.0,55,0.00,,---,0.00,VWS V14.01,2013-03-23 04:01:00,
2013-03-22 23:07:00,32.2,18.3,29.06,SSE,158,0.0,0.0,56,0.00,,---,0.00,VWS V14.01,2013-03-23 04:07:00,
2013-03-22 23:12:00,32.0,18.1,29.06,West,270,0.0,0.0,56,0.00,,---,0.00,VWS V14.01,2013-03-23 04:12:00,
2013-03-22 23:17:00,32.0,18.5,29.06,SE,135,0.0,0.0,57,0.00,,---,0.00,VWS V14.01,2013-03-23 04:17:00,
2013-03-22 23:22:00,31.8,17.9,29.06,East,90,0.0,0.0,56,0.00,,---,0.00,VWS V14.01,2013-03-23 04:22:00,
2013-03-22 23:27:00,31.8,17.9,29.06,East,90,0.0,0.0,56,0.00,,---,0.00,VWS V14.01,2013-03-23 04:27:00,
2013-03-22 23:32:00,31.8,17.9,29.06,East,90,0.0,0.0,56,0.00,,---,0.00,VWS V14.01,2013-03-23 04:32:00,
2013-03-22 23:37:00,31.8,17.9,29.06,East,90,0.0,0.0,56,0.00,,---,0.00,VWS V14.01,2013-03-23 04:37:00,
2013-03-22 23:42:00,31.8,18.3,29.06,SW,225,0.0,0.0,57,0.00,,---,0.00,VWS V14.01,2013-03-23 04:42:00,
2013-03-22 23:47:00,31.6,18.2,29.09,ESE,112,0.0,0.0,57,0.00,,---,0.00,VWS V14.01,2013-03-23 04:47:00,
2013-03-22 23:52:00,31.6,17.8,29.09,ESE,112,0.0,0.0,56,0.00,,---,0.00,VWS V14.01,2013-03-23 04:52:00,
2013-03-22 23:57:00,31.5,18.0,29.09,ESE,112,0.0,0.0,57,0.00,,---,0.00,VWS V14.01,2013-03-23 04:57:00,